Weather in Tianjin

China     39°07′24″N   117°11′52″E
temp.,
°C
wind,
m/s
gust,
m/s
humid.,
%
clouds,
%
prec.,
mm/h
press.,
hPa
HPBL,
m
6 march, sat
sat623:00+1ene592595 0.0 1036943
02:00−1ene7121997 0.0 1037768
05:00−2ene61120100 0.0 1038696
08:00−2ene4719100 0.0 1039667
11:000ene3433100 0.0 1040645
14:00+2ene332791 0.0 10371035
17:00+1sse323291 0.0 1036685
20:000sse233892 0.0 1036236
7 march, sun
sun723:00−1s234332 0.0 1036163
02:00−2sw234621 0.0 1035148
05:00−2sw23460 0.0 1033133
08:00−1wsw12430 0.0 1033199
11:00+4wsw12350 0.0 1033677
14:00+7sw23320 0.0 10301045
17:00+8sw23310 0.0 1029936
20:00+4sse24430 0.0 1030166
8 march, mon
mon823:00+4s23470 0.0 103096
02:00+3s24500 0.0 103096
05:00+2s23510 0.0 102858
08:00+3s23490 0.0 1029147
11:00+8ssw233420 0.0 1029620
14:00+12ssw343050 0.0 10261120
17:00+11s3435100 0.0 1024648
20:00+8sse2346100 0.0 1025123
9 march, tue
tue923:00+7sse225076 0.0 102530
02:00+7ssw236139 0.0 102532
05:00+6sw23670 0.0 102427
08:00+7sw23640 0.0 1026109
11:00+13wsw24460 0.0 1026687
14:00+16w23360 0.0 10251044
17:00+17sw123510 0.0 10241031
20:00+12se36515 0.0 1026201
10 march, wed
wed1023:00+10se48620 0.0 1028249
02:00+9ese510649 0.0 1028332
05:00+7se476917 0.0 1027196
08:00+8sse357044 0.0 1027191
11:00+13sw2460100 0.0 1027686
14:00+16sw3549100 0.0 10251433
17:00+16ssw3649100 0.0 10231454
20:00+14ssw2657100 0.0 1024206